SAS12K EDDH-ESSA

Flight info

Callsign SAS12K
Flight time 1h 17m
Altitude 29000
Route LUGEG3G LUGEG P605 MEGAR DCT KUBIS DCT MIKNA N851 PELUP Z226 NILUG NILUG3P
Aircraft F28/M-SDFIRWY/H

Departure

Time 2026-05-06 17:41
Airport Hamburg Helmut Schmidt Airport (EDDH)

Arrival

Time 2026-05-06 18:59
Airport Stockholm-Arlanda Airport (ESSA)
Time Latitude Longitude Altitude Speed Heading
2026-05-06 17:02 53.62838 10.00207 45 ft 0 kts 61°
2026-05-06 17:31 53.62838 10.00206 45 ft 1 kts 61°
2026-05-06 17:31 53.62822 10.00178 44 ft 4 kts 17°
2026-05-06 17:31 53.62803 10.00182 43 ft 0 kts 330°
2026-05-06 17:34 53.62804 10.00182 43 ft 1 kts 330°
2026-05-06 17:34 53.62809 10.00159 48 ft 4 kts 271°
2026-05-06 17:34 53.62828 10.00101 49 ft 7 kts 324°
2026-05-06 17:34 53.62854 10.00065 49 ft 4 kts 304°
2026-05-06 17:35 53.62860 10.00045 49 ft 0 kts 288°
2026-05-06 17:35 53.62860 10.00043 49 ft 1 kts 287°
2026-05-06 17:36 53.62861 10.00032 49 ft 0 kts 275°
2026-05-06 17:36 53.62852 9.99987 45 ft 5 kts 242°
2026-05-06 17:36 53.62844 9.99961 48 ft 3 kts 242°
2026-05-06 17:36 53.62842 9.99953 49 ft 0 kts 242°
2026-05-06 17:38 53.62841 9.99952 49 ft 1 kts 242°
2026-05-06 17:38 53.62840 9.99949 49 ft 0 kts 242°
2026-05-06 17:39 53.62838 9.99942 47 ft 3 kts 242°
2026-05-06 17:39 53.62814 9.99868 49 ft 8 kts 242°
2026-05-06 17:40 53.62817 9.99788 50 ft 7 kts 318°
2026-05-06 17:40 53.62833 9.99771 50 ft 0 kts 332°
2026-05-06 17:41 53.62949 9.99671 50 ft 51 kts 333°
2026-05-06 17:41 53.63464 9.99227 50 ft 113 kts 332°
2026-05-06 17:41 53.64308 9.98503 207 ft 153 kts 336°
2026-05-06 17:41 53.65329 9.97644 847 ft 171 kts 338°
2026-05-06 17:42 53.66437 9.96714 1695 ft 187 kts 339°
2026-05-06 17:42 53.67642 9.95698 2604 ft 199 kts 341°
2026-05-06 17:42 53.68981 9.95138 3584 ft 200 kts 357°
2026-05-06 17:42 53.70387 9.94903 4581 ft 209 kts 360°
2026-05-06 17:43 53.71871 9.94798 5563 ft 216 kts
2026-05-06 17:43 53.73287 9.95683 6355 ft 224 kts 40°
2026-05-06 17:43 53.74291 9.97751 6955 ft 235 kts 56°
2026-05-06 17:43 53.75169 10.00228 7103 ft 259 kts 60°
2026-05-06 17:44 53.76012 10.02939 7842 ft 256 kts 62°
2026-05-06 17:44 53.76802 10.05647 8513 ft 260 kts 63°
2026-05-06 17:44 53.77592 10.08426 9104 ft 265 kts 63°
2026-05-06 17:44 53.78388 10.11259 9766 ft 270 kts 63°
2026-05-06 17:45 53.79224 10.14243 9934 ft 293 kts 63°
2026-05-06 17:45 53.80139 10.17487 10008 ft 319 kts 63°
2026-05-06 17:45 53.81117 10.20952 10029 ft 327 kts 63°
2026-05-06 17:45 53.82094 10.24421 9973 ft 326 kts 62°
2026-05-06 17:46 53.83078 10.27857 9936 ft 323 kts 62°
2026-05-06 17:46 53.84055 10.31263 10136 ft 320 kts 62°
2026-05-06 17:46 53.85020 10.34629 10758 ft 324 kts 63°
2026-05-06 17:46 53.86033 10.38136 11355 ft 330 kts 63°
2026-05-06 17:47 53.87043 10.41667 11951 ft 335 kts 64°
2026-05-06 17:47 53.88067 10.45251 12552 ft 340 kts 64°
2026-05-06 17:47 53.89105 10.48892 13119 ft 346 kts 65°
2026-05-06 17:47 53.90158 10.52584 13709 ft 350 kts 65°
2026-05-06 17:48 53.91201 10.56275 14226 ft 354 kts 66°
2026-05-06 17:48 53.92285 10.60112 14711 ft 359 kts 66°
2026-05-06 17:48 53.93349 10.63903 15243 ft 361 kts 66°
2026-05-06 17:48 53.94666 10.67568 15682 ft 368 kts 54°
2026-05-06 17:49 53.96302 10.70950 16177 ft 372 kts 49°
2026-05-06 17:49 53.98048 10.74210 16683 ft 375 kts 47°
2026-05-06 17:49 53.99850 10.77451 17159 ft 379 kts 46°
2026-05-06 17:49 54.01690 10.80695 17651 ft 382 kts 46°
2026-05-06 17:50 54.03535 10.83958 18149 ft 384 kts 46°
2026-05-06 17:50 54.05388 10.87251 18572 ft 387 kts 46°
2026-05-06 17:50 54.07234 10.90593 18996 ft 389 kts 47°
2026-05-06 17:50 54.09082 10.93975 19403 ft 391 kts 47°
2026-05-06 17:51 54.10936 10.97389 19800 ft 393 kts 47°
2026-05-06 17:51 54.12794 11.00824 20177 ft 395 kts 47°
2026-05-06 17:51 54.14655 11.04278 20558 ft 397 kts 47°
2026-05-06 17:51 54.16529 11.07765 20919 ft 399 kts 47°
2026-05-06 17:52 54.18380 11.11216 21273 ft 400 kts 47°
2026-05-06 17:52 54.20265 11.14744 21605 ft 403 kts 47°
2026-05-06 17:52 54.22155 11.18273 21953 ft 404 kts 47°
2026-05-06 17:52 54.24070 11.21818 22199 ft 409 kts 47°
2026-05-06 17:53 54.26008 11.25422 22419 ft 413 kts 46°
2026-05-06 17:53 54.27959 11.29041 22719 ft 415 kts 46°
2026-05-06 17:53 54.29919 11.32682 23035 ft 416 kts 46°
2026-05-06 17:53 54.31865 11.36352 23341 ft 418 kts 47°
2026-05-06 17:54 54.33820 11.40054 23598 ft 419 kts 46°
2026-05-06 17:54 54.35782 11.43757 23867 ft 420 kts 47°
2026-05-06 17:54 54.37749 11.47485 24081 ft 422 kts 47°
2026-05-06 17:54 54.39718 11.51227 24332 ft 423 kts 47°
2026-05-06 17:55 54.41692 11.54992 24545 ft 425 kts 47°
2026-05-06 17:55 54.43669 11.58758 24803 ft 425 kts 47°
2026-05-06 17:55 54.45697 11.62467 24973 ft 427 kts 43°
2026-05-06 17:55 54.47968 11.65775 25180 ft 428 kts 37°
2026-05-06 17:56 54.50391 11.68744 25392 ft 429 kts 33°
2026-05-06 17:56 54.52897 11.71543 25599 ft 430 kts 31°
2026-05-06 17:56 54.55444 11.74254 25787 ft 431 kts 31°
2026-05-06 17:56 54.58004 11.76956 25984 ft 432 kts 31°
2026-05-06 17:57 54.60572 11.79661 26168 ft 433 kts 31°
2026-05-06 17:57 54.63135 11.82401 26354 ft 434 kts 31°
2026-05-06 17:57 54.65701 11.85170 26530 ft 435 kts 31°
2026-05-06 17:57 54.68272 11.87950 26719 ft 437 kts 32°
2026-05-06 17:58 54.70850 11.90757 26857 ft 438 kts 31°
2026-05-06 17:58 54.73430 11.93577 27020 ft 439 kts 32°
2026-05-06 17:58 54.76022 11.96413 27182 ft 440 kts 32°
2026-05-06 17:58 54.78605 11.99271 27345 ft 441 kts 32°
2026-05-06 17:59 54.81153 12.02120 27538 ft 441 kts 33°
2026-05-06 17:59 54.83735 12.05003 27696 ft 442 kts 33°
2026-05-06 17:59 54.86323 12.07890 27841 ft 443 kts 33°
2026-05-06 17:59 54.88920 12.10782 27986 ft 444 kts 33°
2026-05-06 18:00 54.91520 12.13675 28119 ft 445 kts 33°
2026-05-06 18:00 54.94137 12.16575 28167 ft 448 kts 32°
2026-05-06 18:00 54.96781 12.19469 28293 ft 449 kts 32°
2026-05-06 18:00 54.99422 12.22382 28422 ft 450 kts 32°
2026-05-06 18:01 55.02060 12.25322 28553 ft 450 kts 33°
2026-05-06 18:01 55.04699 12.28274 28688 ft 451 kts 33°
2026-05-06 18:01 55.07344 12.31235 28799 ft 452 kts 33°
2026-05-06 18:01 55.09990 12.34198 28909 ft 453 kts 33°
2026-05-06 18:02 55.15313 12.40157 28979 ft 454 kts 33°
2026-05-06 18:02 55.20615 12.46132 28959 ft 453 kts 33°
2026-05-06 18:03 55.25865 12.52195 28956 ft 451 kts 33°
2026-05-06 18:03 55.31091 12.58333 28968 ft 452 kts 34°
2026-05-06 18:04 55.36309 12.64488 28956 ft 452 kts 34°
2026-05-06 18:04 55.41527 12.70661 28966 ft 452 kts 34°
2026-05-06 18:05 55.46747 12.76864 28973 ft 453 kts 34°
2026-05-06 18:05 55.51948 12.83120 28964 ft 453 kts 34°
2026-05-06 18:06 55.57168 12.89358 28969 ft 453 kts 34°
2026-05-06 18:06 55.62384 12.95618 28962 ft 453 kts 34°
2026-05-06 18:07 55.67572 13.01957 28968 ft 453 kts 34°
2026-05-06 18:07 55.72744 13.08198 28969 ft 453 kts 33°
2026-05-06 18:08 55.77939 13.14513 28968 ft 452 kts 34°
2026-05-06 18:08 55.83130 13.20860 28972 ft 452 kts 33°
2026-05-06 18:09 55.88333 13.27182 28966 ft 453 kts 33°
2026-05-06 18:09 55.93534 13.33522 28967 ft 454 kts 34°
2026-05-06 18:10 55.98726 13.39946 28964 ft 454 kts 33°
2026-05-06 18:10 56.03933 13.46342 28965 ft 455 kts 34°
2026-05-06 18:11 56.09129 13.52808 28975 ft 455 kts 33°
2026-05-06 18:11 56.14359 13.59235 28973 ft 456 kts 34°
2026-05-06 18:12 56.19566 13.65775 28969 ft 457 kts 34°
2026-05-06 18:12 56.24795 13.72287 28976 ft 458 kts 33°
2026-05-06 18:13 56.30020 13.78865 28967 ft 458 kts 34°
2026-05-06 18:13 56.35259 13.85460 28982 ft 459 kts 33°
2026-05-06 18:14 56.40511 13.92054 28968 ft 460 kts 34°
2026-05-06 18:14 56.45735 13.98747 28964 ft 460 kts 34°
2026-05-06 18:15 56.50950 14.05344 28968 ft 460 kts 34°
2026-05-06 18:15 56.56170 14.12033 28966 ft 459 kts 34°
2026-05-06 18:16 56.61398 14.18748 28967 ft 460 kts 34°
2026-05-06 18:16 56.66640 14.25424 28966 ft 461 kts 33°
2026-05-06 18:17 56.71889 14.32155 28958 ft 461 kts 34°
2026-05-06 18:17 56.77076 14.38919 28953 ft 462 kts 34°
2026-05-06 18:18 56.82363 14.45735 28959 ft 462 kts 34°
2026-05-06 18:18 56.87606 14.52574 28940 ft 464 kts 34°
2026-05-06 18:19 56.92829 14.59397 28940 ft 465 kts 34°
2026-05-06 18:19 56.98092 14.66287 28959 ft 465 kts 34°
2026-05-06 18:20 57.03362 14.73202 28959 ft 466 kts 34°
2026-05-06 18:20 57.08635 14.80168 28966 ft 467 kts 34°
2026-05-06 18:21 57.13916 14.87174 28965 ft 468 kts 34°
2026-05-06 18:21 57.19214 14.94209 28965 ft 469 kts 34°
2026-05-06 18:22 57.24504 15.01283 28967 ft 470 kts 34°
2026-05-06 18:22 57.28878 15.07240 28961 ft 470 kts 34°
2026-05-06 18:23 57.34175 15.14360 28970 ft 471 kts 34°
2026-05-06 18:23 57.39481 15.21485 28970 ft 471 kts 34°
2026-05-06 18:24 57.44792 15.28632 28976 ft 472 kts 34°
2026-05-06 18:24 57.50089 15.35882 28974 ft 473 kts 34°
2026-05-06 18:25 57.55399 15.43113 28985 ft 473 kts 34°
2026-05-06 18:25 57.60683 15.50314 28973 ft 474 kts 34°
2026-05-06 18:26 57.65984 15.57658 28976 ft 475 kts 34°
2026-05-06 18:26 57.71312 15.64967 28977 ft 475 kts 34°
2026-05-06 18:27 57.76614 15.72359 28985 ft 475 kts 34°
2026-05-06 18:27 57.81938 15.79720 28984 ft 476 kts 34°
2026-05-06 18:28 57.87204 15.87125 28985 ft 476 kts 35°
2026-05-06 18:28 57.92489 15.94656 28984 ft 477 kts 36°
2026-05-06 18:29 57.97725 16.02337 28987 ft 477 kts 36°
2026-05-06 18:29 58.02948 16.10073 29004 ft 478 kts 36°
2026-05-06 18:30 58.08166 16.17862 28978 ft 478 kts 37°
2026-05-06 18:30 58.13363 16.25719 28987 ft 478 kts 37°
2026-05-06 18:31 58.18584 16.33524 28984 ft 478 kts 37°
2026-05-06 18:31 58.23782 16.41356 28987 ft 476 kts 37°
2026-05-06 18:32 58.28682 16.49823 28992 ft 477 kts 47°
2026-05-06 18:32 58.32807 16.59615 28991 ft 477 kts 54°
2026-05-06 18:33 58.34767 16.64782 28519 ft 474 kts 54°
2026-05-06 18:33 58.36644 16.69782 27982 ft 464 kts 54°
2026-05-06 18:33 58.38524 16.74769 27364 ft 463 kts 54°
2026-05-06 18:33 58.40411 16.79723 26767 ft 461 kts 53°
2026-05-06 18:34 58.42312 16.84646 26194 ft 459 kts 53°
2026-05-06 18:34 58.44206 16.89529 25639 ft 456 kts 53°
2026-05-06 18:34 58.46082 16.94383 25103 ft 453 kts 52°
2026-05-06 18:34 58.47939 16.99210 24613 ft 449 kts 52°
2026-05-06 18:35 58.49778 17.03996 24098 ft 444 kts 52°
2026-05-06 18:35 58.51598 17.08744 23556 ft 440 kts 52°
2026-05-06 18:35 58.53404 17.13443 22880 ft 436 kts 52°
2026-05-06 18:35 58.55186 17.18081 22342 ft 429 kts 52°
2026-05-06 18:36 58.56923 17.22649 21819 ft 421 kts 53°
2026-05-06 18:36 58.58623 17.27144 21307 ft 412 kts 52°
2026-05-06 18:36 58.60298 17.31523 20806 ft 403 kts 52°
2026-05-06 18:36 58.61940 17.35801 20305 ft 394 kts 52°
2026-05-06 18:37 58.63538 17.40026 19790 ft 387 kts 53°
2026-05-06 18:37 58.65079 17.44139 19296 ft 381 kts 53°
2026-05-06 18:37 58.66623 17.48235 18806 ft 375 kts 52°
2026-05-06 18:37 58.68152 17.52257 18328 ft 370 kts 52°
2026-05-06 18:38 58.69672 17.56260 17804 ft 377 kts 52°
2026-05-06 18:38 58.71243 17.60457 17292 ft 393 kts 53°
2026-05-06 18:38 58.72842 17.64755 16810 ft 396 kts 53°
2026-05-06 18:38 58.74442 17.69058 16338 ft 389 kts 53°
2026-05-06 18:39 58.75988 17.73223 15866 ft 376 kts 53°
2026-05-06 18:39 58.77490 17.77250 15393 ft 364 kts 52°
2026-05-06 18:39 58.79292 17.80536 14890 ft 352 kts 30°
2026-05-06 18:40 58.83846 17.82563 13960 ft 331 kts
2026-05-06 18:40 58.86161 17.82769 13391 ft 340 kts
2026-05-06 18:40 58.88566 17.83229 12790 ft 355 kts
2026-05-06 18:40 58.91042 17.84048 12213 ft 367 kts 10°
2026-05-06 18:41 58.93534 17.85154 11657 ft 363 kts 13°
2026-05-06 18:41 58.95942 17.86409 11114 ft 354 kts 14°
2026-05-06 18:41 58.98276 17.87732 10568 ft 346 kts 15°
2026-05-06 18:41 59.00553 17.89066 10201 ft 334 kts 16°
2026-05-06 18:42 59.02748 17.90371 10475 ft 330 kts 16°
2026-05-06 18:42 59.04970 17.91704 10825 ft 348 kts 16°
2026-05-06 18:42 59.07298 17.93104 10963 ft 335 kts 16°
2026-05-06 18:42 59.09438 17.94367 10998 ft 320 kts 15°
2026-05-06 18:43 59.11606 17.95628 10998 ft 322 kts 15°
2026-05-06 18:43 59.13765 17.96874 11001 ft 324 kts 15°
2026-05-06 18:43 59.15902 17.98109 11007 ft 326 kts 15°
2026-05-06 18:43 59.18078 17.99365 11010 ft 324 kts 15°
2026-05-06 18:44 59.20250 18.00627 10605 ft 325 kts 15°
2026-05-06 18:44 59.22359 18.01885 10306 ft 301 kts 15°
2026-05-06 18:44 59.24230 18.03022 9963 ft 268 kts 15°
2026-05-06 18:44 59.25993 18.04080 9644 ft 262 kts 15°
2026-05-06 18:45 59.27714 18.05098 9326 ft 256 kts 15°
2026-05-06 18:45 59.29443 18.06120 9018 ft 264 kts 15°
2026-05-06 18:45 59.31231 18.07179 8746 ft 272 kts 15°
2026-05-06 18:45 59.33075 18.08194 8505 ft 278 kts 12°
2026-05-06 18:46 59.34968 18.08923 8274 ft 276 kts
2026-05-06 18:46 59.36861 18.09540 7958 ft 277 kts
2026-05-06 18:46 59.38775 18.10121 7608 ft 279 kts
2026-05-06 18:46 59.40700 18.10669 7266 ft 276 kts
2026-05-06 18:47 59.42504 18.11156 7069 ft 253 kts
2026-05-06 18:47 59.44243 18.11611 7008 ft 251 kts
2026-05-06 18:47 59.45969 18.12057 7002 ft 249 kts
2026-05-06 18:47 59.47684 18.12498 7001 ft 247 kts
2026-05-06 18:48 59.49388 18.12936 7005 ft 246 kts
2026-05-06 18:48 59.51063 18.13395 6984 ft 246 kts
2026-05-06 18:48 59.52778 18.13886 6984 ft 246 kts
2026-05-06 18:48 59.54444 18.14373 6987 ft 246 kts
2026-05-06 18:49 59.56162 18.14873 6988 ft 247 kts
2026-05-06 18:49 59.57843 18.15359 6953 ft 248 kts
2026-05-06 18:49 59.59574 18.15862 6738 ft 255 kts
2026-05-06 18:49 59.61341 18.16373 6546 ft 259 kts
2026-05-06 18:50 59.63133 18.16876 6346 ft 261 kts
2026-05-06 18:50 59.64946 18.17369 6148 ft 263 kts
2026-05-06 18:50 59.66764 18.17862 5939 ft 264 kts
2026-05-06 18:50 59.68591 18.18357 5746 ft 265 kts
2026-05-06 18:51 59.70422 18.18850 5550 ft 266 kts
2026-05-06 18:51 59.72250 18.19338 5313 ft 262 kts
2026-05-06 18:51 59.73979 18.19803 5023 ft 240 kts
2026-05-06 18:51 59.75602 18.20239 4691 ft 230 kts
2026-05-06 18:52 59.77187 18.20661 4360 ft 234 kts
2026-05-06 18:52 59.78837 18.21095 4062 ft 243 kts
2026-05-06 18:52 59.80518 18.20671 3750 ft 249 kts 335°
2026-05-06 18:52 59.81869 18.18559 3493 ft 251 kts 303°
2026-05-06 18:53 59.82606 18.15466 3230 ft 244 kts 287°
2026-05-06 18:53 59.83123 18.12315 3012 ft 234 kts 282°
2026-05-06 18:53 59.83121 18.09226 2788 ft 220 kts 248°
2026-05-06 18:53 59.82380 18.06667 2714 ft 213 kts 232°
2026-05-06 18:54 59.81403 18.04463 2659 ft 211 kts 222°
2026-05-06 18:54 59.80380 18.02557 2614 ft 192 kts 219°
2026-05-06 18:54 59.79266 18.01415 2525 ft 174 kts 194°
2026-05-06 18:54 59.78121 18.00767 2427 ft 171 kts 193°
2026-05-06 18:55 59.76965 18.00219 2343 ft 165 kts 190°
2026-05-06 18:55 59.75942 17.99817 2157 ft 137 kts 188°
2026-05-06 18:55 59.75014 17.99500 1912 ft 134 kts 188°
2026-05-06 18:55 59.74096 17.99199 1818 ft 140 kts 188°
2026-05-06 18:56 59.73110 17.98868 1863 ft 143 kts 188°
2026-05-06 18:56 59.72141 17.98525 1675 ft 146 kts 189°
2026-05-06 18:56 59.71151 17.98168 1468 ft 141 kts 189°
2026-05-06 18:56 59.70249 17.97835 1296 ft 127 kts 189°
2026-05-06 18:57 59.69426 17.97529 1111 ft 116 kts 188°
2026-05-06 18:57 59.68617 17.97225 941 ft 120 kts 188°
2026-05-06 18:57 59.67801 17.96920 765 ft 118 kts 187°
2026-05-06 18:57 59.66981 17.96630 617 ft 120 kts 186°
2026-05-06 18:58 59.66158 17.96347 461 ft 121 kts 186°
2026-05-06 18:58 59.65343 17.96055 260 ft 117 kts 186°
2026-05-06 18:58 59.64537 17.95764 118 ft 115 kts 187°
2026-05-06 18:58 59.63901 17.95537 112 ft 74 kts 191°
2026-05-06 18:59 59.63558 17.95410 117 ft 36 kts 192°
2026-05-06 18:59 59.63356 17.95224 120 ft 27 kts 216°
2026-05-06 18:59 59.63254 17.95058 120 ft 14 kts 228°
2026-05-06 18:59 59.63265 17.94915 118 ft 12 kts 335°
2026-05-06 19:00 59.63353 17.94928 120 ft 17 kts 10°
2026-05-06 19:00 59.63477 17.94973 114 ft 19 kts 10°
2026-05-06 19:00 59.63613 17.95021 112 ft 21 kts 11°
2026-05-06 19:00 59.63710 17.95058 109 ft 21 kts 10°
2026-05-06 19:01 59.63900 17.95126 107 ft 21 kts 11°
2026-05-06 19:01 59.64043 17.95178 105 ft 21 kts 10°
2026-05-06 19:01 59.64184 17.95230 104 ft 21 kts 11°
2026-05-06 19:01 59.64323 17.95283 103 ft 20 kts 11°
2026-05-06 19:02 59.64458 17.95327 101 ft 19 kts 10°
2026-05-06 19:02 59.64590 17.95375 102 ft 19 kts 10°
2026-05-06 19:02 59.64715 17.95422 103 ft 18 kts 11°
2026-05-06 19:02 59.64831 17.95467 104 ft 16 kts 11°
2026-05-06 19:03 59.64937 17.95503 107 ft 15 kts
2026-05-06 19:03 59.65035 17.95511 111 ft 15 kts 355°
2026-05-06 19:03 59.65158 17.95455 116 ft 21 kts 345°
2026-05-06 19:03 59.65308 17.95377 124 ft 23 kts 345°
2026-05-06 19:04 59.65470 17.95291 124 ft 26 kts 345°
2026-05-06 19:04 59.65650 17.95194 126 ft 25 kts 345°
2026-05-06 19:04 59.65749 17.95056 122 ft 19 kts 275°
2026-05-06 19:04 59.65721 17.94797 119 ft 20 kts 255°
2026-05-06 19:05 59.65686 17.94524 120 ft 20 kts 257°
2026-05-06 19:05 59.65653 17.94254 122 ft 21 kts 256°
2026-05-06 19:05 59.65615 17.93960 114 ft 24 kts 255°
2026-05-06 19:05 59.65574 17.93634 109 ft 24 kts 256°
2026-05-06 19:06 59.65546 17.93408 108 ft 12 kts 250°
2026-05-06 19:06 59.65481 17.93341 109 ft 11 kts 184°
2026-05-06 19:06 59.65417 17.93380 109 ft 5 kts 114°
2026-05-06 19:06 59.65426 17.93442 109 ft 6 kts 75°
2026-05-06 19:07 59.65433 17.93502 108 ft 1 kts 75°
2026-05-06 19:07 59.65434 17.93502 108 ft 0 kts 75°